Погода в Мийо

Франция     44°05′58″N   3°04′51″E
темп.,
°C
ветер,
м/с
пор.,
м/с
влажн.,
%
обл.,
%
осадки,
мм/ч
давл.,
гПа
погр.,
м
27 июля, вт
вт2723:00+13ссз22870 0.0 101722
02:00+12ссз11956 0.0 101712
05:00+12ссв119599 0.0 101611
08:00+14ссв1185100 0.0 101664
11:00+22зсз01509 0.0 1015531
14:00+26зюз233816 0.0 10141420
17:00+27зсз333421 0.0 10131995
20:00+22юз225735 0.0 101332
28 июля, ср
ср2823:00+17ссз1184100 0.1 101515
02:00+15ссз119452 0.1 101615
05:00+14сз1197100 0.1 101612
08:00+14юз1199100 5.9 101789
11:00+20з227860 0.3 1017669
14:00+24з335466 0.3 10161460
17:00+25зюз335251 0.0 10151519
20:00+22з356618 0.0 1016347
29 июля, чт
чт2923:00+17ссз11901 0.0 101714
02:00+15ссз11940 0.0 101711
05:00+14с11962 0.0 101611
08:00+16ссв11860 0.0 101686
11:00+24зсз11575 0.0 1015686
14:00+27зюз22486 0.0 10141406
17:00+29зсз23460 0.0 10121509
20:00+25з37654 0.3 1013418
30 июля, пт
пт3023:00+18сз1195100 1.0 101512
02:00+16сз11965 1.0 101511
05:00+15ссв11967 0.0 101411
08:00+17зсз11925 0.1 101466
11:00+22з227150 0.1 1014597
14:00+26з44536 0.1 10121281
17:00+27з55515 0.0 10121389
20:00+23зсз57652 0.0 1013879
31 июля, сб
сб3123:00+16сз22842 0.0 101526
02:00+14с11820 0.0 101513
05:00+13с118611 0.0 101412
08:00+15зсз128437 0.0 1013119
11:00+21з3364100 0.0 1012904
14:00+21з556689 0.2 10121099
17:00+21сз5743100 0.0 10131731
20:00+18сз5963100 0.0 10141083